* Astronomy

Members Login
Username 
 
Password 
    Remember Me  
Post Info TOPIC: Asteroid 2012 BN1


L

Posts: 131433
Date:
Asteroid 2012 BN1
Permalink  
 


Orbital elements:
2012 BN1                                                 Earth MOID = 0.0337 AU
Epoch 2012 Mar. 14.0 TT = JDT 2456000.5                 MPC
M 209.52435              (2000.0)            P               Q
n   1.16191295     Peri.   24.22948     +0.77633579     +0.62628922
a   0.8960942      Node   296.80295     -0.59054291     +0.68322137
e   0.2029909      Incl.    4.57315     -0.22036743     +0.37546022
P   0.85           H   25.4           G   0.15           U   9

MPEC 2012 - B09



__________________
Page 1 of 1  sorted by
 
Quick Reply

Please log in to post quick replies.



Create your own FREE Forum
Report Abuse
Powered by ActiveBoard